Location: Meadowbank Aerodrome
(65.0250°N, 96.0705°W)
Time: 08:43:44
(UTC-05:00)

Cosmos 2221 - Visible Passes

Search period start: 16 April 2014 00:00
Search period end: 26 April 2014 00:00
Orbit: 600 x 622 km, 82.5° (Epoch: 16 April)

Date Brightness Start Highest point End Pass type
(mag) Time Alt. Az. Time Alt. Az. Time Alt. Az.
16 Apr 5.1 01:09:12 10° N 01:12:20 19° NE 01:15:27 10° E visible
16 Apr 3.3 02:46:40 10° NNW 02:51:03 55° ENE 02:55:21 10° SE visible
16 Apr 3.2 04:24:36 10° NNW 04:28:40 37° W 04:32:42 10° SSW visible
16 Apr 5.6 23:47:11 10° N 23:48:09 11° NNE 23:49:07 10° NE visible
17 Apr 4.8 01:24:02 10° N 01:27:35 23° NE 01:31:06 10° E visible
17 Apr 2.7 03:01:36 10° NNW 03:06:03 75° ENE 03:10:26 10° SSE visible
17 Apr 3.7 04:39:42 10° NNW 04:43:25 27° W 04:47:06 10° SW visible
18 Apr 5.4 00:01:43 10° N 00:03:33 12° NNE 00:05:22 10° NE visible
18 Apr 4.4 01:38:54 10° N 01:42:46 29° NE 01:46:36 10° ESE visible
18 Apr 2.5 03:16:33 10° NNW 03:20:59 80° WSW 03:25:22 10° S visible
19 Apr 5.3 00:16:26 10° N 00:18:53 14° NNE 00:21:20 10° ENE visible
19 Apr 3.9 01:53:46 10° N 01:57:54 37° ENE 02:01:59 10° SE visible
19 Apr 2.7 03:31:31 10° NNW 03:35:52 57° W 03:40:09 10° S visible
20 Apr 5.1 00:31:13 10° N 00:34:11 17° NE 00:37:08 10° E visible
20 Apr 3.4 02:08:39 10° NNW 02:12:58 49° ENE 02:17:14 10° SE visible
20 Apr 3.1 03:46:32 10° NNW 03:50:41 41° W 03:54:47 10° SSW visible
20 Apr 5.6 23:09:34 10° NNE 23:09:57 10° NNE 23:10:20 10° NNE visible
21 Apr 4.8 00:46:02 10° N 00:49:26 21° NE 00:52:49 10° E visible
21 Apr 2.9 02:23:34 10° NNW 02:27:59 68° ENE 02:32:20 10° SSE visible
21 Apr 3.6 04:01:36 10° NNW 04:05:26 30° W 04:09:14 10° SSW visible
21 Apr 5.4 23:23:47 10° N 23:25:20 12° NNE 23:26:53 10° NE visible
22 Apr 4.5 01:00:52 10° N 01:04:38 26° NE 01:08:21 10° ESE visible
22 Apr 2.5 02:38:30 10° NNW 02:42:56 88° WSW 02:47:15 10° SSE visible
22 Apr 4.0 04:16:45 10° NNW 04:20:08 22° W 04:23:29 10° SW visible
22 Apr 5.2 23:38:27 10° N 23:40:41 14° NNE 23:42:55 10° ENE visible
23 Apr 4.0 01:15:44 10° N 01:19:46 34° NE 01:23:46 10° ESE visible
23 Apr 2.6 02:53:27 10° NNW 02:57:49 64° W 03:01:54 11° S visible
23 Apr 5.1 23:53:12 10° N 23:55:59 16° NE 23:58:46 10° ENE visible
24 Apr 3.5 01:30:36 10° NNW 01:34:51 45° ENE 01:39:02 10° SE visible
24 Apr 3.0 03:08:26 10° NNW 03:12:38 45° W 03:16:33 11° SSW visible
25 Apr 4.8 00:08:00 10° N 00:11:15 20° NE 00:14:28 10° E visible
25 Apr 3.0 01:45:29 10° NNW 01:49:52 61° ENE 01:54:11 10° SSE visible
25 Apr 3.5 03:23:28 10° NNW 03:27:24 33° W 03:31:13 10° SSW visible
25 Apr 5.3 22:45:52 10° N 22:47:05 11° NNE 22:48:18 10° NE visible
